CZ-12 R/B, 62187

Orbit data source: Space-Track

CZ-12 R/B, 62187 is space debris in LEO originally from a launch on Sat, 30 Nov 2024 UTC launched from the Wenchang Satellite Launch Center (WSC). Debris objects in space refer to the collection of defunct objects orbiting the Earth. Examples of debris include non-operational satellites, rocket bodies, and fragments generated from explosions, collisions, or faulty payload assembly.

Loading next visibility...
Identifier
62187, 2024-226C
Orbit
LEO
Country
Flag of CNCN / PRC
Related business
Manufacturer
SAST
Mission
Spacecraft
Bus & Motor
CZ-12 STAGE 2, YF-115
Mass
~6,000 kg wet, ~6,000 kg dry
Launch date (UTC)
2024-11-30 (2 years ago)
Launch vehicle
Unknown
Launch site
Wenchang Satellite Launch Center (WSC)
Object type
Payload
Rocket body
Debris
Shape & HBR
Cyl, 5.0 m
Radar Cross Section
35.516 m², Large (>1 m²)

Expand to show TLE details & history
Last TLE update: 11 hours ago

TLE from 11 hours ago
0 CZ-12 R/B
1 62187U 24226C   26171.39839339 -.00000135  00000-0  55245-5 0  9990
2 62187  49.9997 202.2497 0060980 123.8553 236.8161 13.73631851 77918
Epoch: 2026-06-20T09:33Z
TLE epoch observation values (Epoch: 2026-06-20T09:33:41.188Z)
Latitude
-0.00006°
Longitude
150.21445°
Altitude
1,011.848 km
Speed
7.335 km/s
True Right ascension
13h 28m 59s
True Declination
0° 00' 00"
Sunlit
Object was in daylight at epoch
Visualization orbit readout
Latitude
Unknown
Longitude
Unknown
Altitude
Unknown
Speed
Unknown
Apparent Right ascension
Unknown
Apparent Declination
Unknown
Sunlit
N/A
Visualization observer readout
Local Sidereal Time
07:24:30
Azimuth
Unknown
Elevation
Unknown
Doppler factor
Unknown
Orbital elements
Apogee altitude
1,032.196 km
Perigee altitude
942.367 km
Semi-major axis
7,365.419 km
Eccentricity
0.0061
Inclination
49.9997°
RAAN
202.2497°
Arg. of periapsis
123.8553°
True anomaly
236.23372°
Mean anomaly
236.8161°
Eccentric anomaly
236.52467°
Mean motion
3.43358 °/min
Orbital period
104.85 mins
BSTAR
0.0000055245
Loading maneuver chart data...
Computing Atmospheric mass density...
Loading historical data...
Loading historical data...
Loading historical data...
Loading historical data...
Loading historical data...
Loading historical data...
Loading historical data...
Other satellites on launch #226 in the year 2024 (2024-11-30 UTC)

Documentation

Showing up to 5 results
|